Weather in Adler

Russia / Krasnodar Krai     43°26′36″N   39°54′37″E
temp.,
°C
wind,
m/s
gust,
m/s
humid.,
%
clouds,
%
prec.,
mm/h
press.,
hPa
HPBL,
m
11 april, sun
sun1100:00+5wsw1199100 1.4 1019195
03:00+6w119793 1.8 1018224
06:00+6wnw129643 0.1 1016162
09:00+7wsw2192100 0.3 1017401
12:00+8wnw1194100 0.4 1017338
15:00+7w1298100 3.4 1017193
18:00+7sw2398100 0.5 1018262
21:00+6sw2299100 6.1 1020192
12 april, mon
mon1200:00+6ese1297100 7.4 1021161
03:00+5sse2396100 9.7 1022168
06:00+6ese1297100 0.1 1022236
09:00+7se1395100 0.2 1023238
12:00+8ese0188100 0.6 1022346
15:00+7ssw119598 1.4 1022260
18:00+7s2399100 0.6 1023214
21:00+7ne0096100 5.6 102449
13 april, tue
tue1300:00+6sse1197100 1.6 102477
03:00+7ne0197100 2.9 102465
06:00+7nnw129555 0.1 102376
09:00+10wnw228590 0.1 1022476
12:00+10w228559 0.1 1022438
15:00+10wsw338296 0.2 1021484
18:00+8nw2291100 0.1 1020208
21:00+7nnw1195100 0.1 102070
14 april, wed
wed1400:00+8s2397100 0.1 1020279
03:00+7sse2398100 1.0 1020192
06:00+7s1298100 0.4 1020170
09:00+8ene019285 0.6 1021189
12:00+11sw218348 0.1 1019493
15:00+12sw217427 0.1 1018568
18:00+11w11826 0.0 1017103
21:00+9ene218876 0.0 101716
15 april, thu
thu1500:00+9ene227894 0.0 101723
03:00+9ene227623 0.0 101623
06:00+8ene32715 0.0 101532
09:00+16s115013 0.0 1014333
12:00+15wnw116099 0.1 1014309
15:00+18w225188 0.3 1014760
18:00+14nw1273100 0.1 101531
21:00+11nnw1179100 0.1 101720